Regional Weather Roundup
Issued by NWS Memphis, TN

Home | Current Version | Previous Version | Text Only | Print | Product List | Glossary On
Versions: 1 2 3 4 5 6 7 8 9 10 11 12 13 14 15 16 17 18 19 20 21 22 23 24 25 26 27 28 29 30 31 32 33 34 35 36 37 38 39 40 41 42 43 44 45 46 47 48 49 50
000
ASUS44 KMEG 241610
RWRMEG
MEMPHIS CWA HOURLY WEATHER ROUNDUP
NATIONAL WEATHER SERVICE MEMPHIS TN
1000 AM CST FRI FEB 24 2017

...WEST TENNESSEE...

CITY           SKY/WX    TMP DP  RH WIND       PRES   REMARKS
MEMPHIS INTL   MOSUNNY   67  56  67 SW23G31   29.69R
NWS MEMPHIS      N/A     68 N/A N/A MISG        N/A
JACKSON        SUNNY     72  55  55 S17G24    29.67F
BOLIVAR        SUNNY     72  55  56 S17       29.69F
SAVANNAH       SUNNY     72  55  56 S15G22    29.73F
UNION CITY     SUNNY     70  52  52 S14       29.63S
PARIS          SUNNY     70  54  56 S18       29.66F
HUNTINGDON     SUNNY     72  54  53 SW21G30   29.67F


...EASTERN ARKANSAS...

CITY           SKY/WX    TMP DP  RH WIND       PRES   REMARKS
JONESBORO      CLOUDY    64  55  72 SW20G29   29.65R
WEST MEMPHIS   MOSUNNY   66  57  72 SW16G26   29.69R
BATESVILLE     PTSUNNY   63  54  72 S12G17    29.64S
NEWPORT        PTSUNNY   63  56  78 SW22G29     N/A
WALNUT RIDGE   SUNNY     66  52  59 SW29      29.61S
BLYTHEVILLE    SUNNY     69  55  60 SW26G37   29.66R
SEARCY         CLOUDY    62  57  83 SW13G20   29.68R
STUTTGART      CLOUDY    63  52  67 S15       29.71R
PINE BLUFF     CLOUDY    64  56  75 S13G26    29.70R
MONTICELLO     PTSUNNY   68  56  65 SW14G22   29.72R


...NORTH MISSISSIPPI...

CITY           SKY/WX    TMP DP  RH WIND       PRES   REMARKS
TUPELO         SUNNY     69  56  62 SE15G23   29.76F
OXFORD         MOSUNNY   66  55  68 S13G23    29.77S
BATESVILLE     MOSUNNY   65  56  72 SW17G28   29.76S
OLIVE BRANCH   MOSUNNY  N/A N/A N/A S23G35    29.70R
TUNICA         CLOUDY    63  54  72 S23G29    29.74S
CORINTH        SUNNY     72  55  56 S14G24    29.73F
GREENWOOD      PTSUNNY   68  56  65 S22       29.77F
COLUMBUS       SUNNY     71  59  67 S16       29.80S
STARKVILLE     SUNNY     68  57  68 S15G21    29.82S
GOLDEN TRIANGL SUNNY     70  55  60 S14       29.78R


...SOUTHEAST MISSOURI...

CITY           SKY/WX    TMP DP  RH WIND       PRES   REMARKS
KENNETT        MOSUNNY   68  57  68 SW28      29.62R HAZE
MALDEN         SUNNY     68  54  60 SW24G30   29.62S
POPLAR BLUFF   PTSUNNY   65  54  67 SW25G35   29.59S
CAPE GIRARDEAU MOSUNNY   66  54  65 SW24G35   29.59R


...NORTHWEST ALABAMA...

CITY           SKY/WX    TMP DP  RH WIND       PRES   REMARKS
MUSCLE SHOALS  SUNNY     73  56  54 S24G32    29.80F


...MIDDLE TENNESSEE...

CITY           SKY/WX    TMP DP  RH WIND       PRES   REMARKS
NASHVILLE      CLOUDY    73  55  53 S26G36    29.75F
CLARKSVILLE    MOSUNNY   72  55  55 S23G35    29.69F
COLUMBIA       MOSUNNY   72  63  73 S21       29.74F


...WESTERN KENTUCKY...

CITY           SKY/WX    TMP DP  RH WIND       PRES   REMARKS
PADUCAH        MOSUNNY   71  52  50 SW18G26   29.61S
FORT CAMPBELL  MOSUNNY   72  56  57 S23G33    29.67F


...CENTRAL ARKANSAS...

CITY           SKY/WX    TMP DP  RH WIND       PRES   REMARKS
LITTLE ROCK    CLOUDY    61  57  87 S10       29.69R


SKY/WX REPORTED AS FAIR MEANS FEW OR NO CLOUDS BELOW
12 THOUSAND FEET.





USA.gov is the U.S. government's official web portal to all federal, state and local government web resources and services.